Tracking 31027 objects as of 19-Jul-2025
HD Live streaming from Space Station
objects crossing your sky now

DELTA 1 DEB

Track DELTA 1 DEB now!
10-day predictions


NORAD ID: 42579
Int'l Code: 1973-086HT
Perigee: 1,507.7 km
Apogee: 1,633.3 km
Inclination: 102.6 °
Period: 117.4 minutes
Semi major axis: 7941 km
RCS: Unknown
Launch date: November 6, 1973
Source: United States (US)
Launch site: AIR FORCE WESTERN TEST RANGE (AFWTR)

Note: This is SATELLITE DEBRIS
Your satellite tracking list
STARLINK-31611
Track 1 satellite(s)




NASA's NSSDC Master Catalog

Two Line Element Set (TLE):
1 42579U 73086HT  25187.82410550  .00000056  00000-0  90548-3 0  9999
2 42579 102.6059 196.4918 0079084 247.3594 111.9081 12.26740880168242
Source of the keplerian elements: AFSPC